[[{"header":{"parameterUnit":"m.s-1","parameterCategory":2,"la1":30.2991,"la2":30.254,"lo1":-89.0895,"lo2":-89.0444,"dy":0.0017,"dx":0.0017,"nx":28,"ny":28,"refTime":"2025-07-13T21:00:00:Z","depth":"0","parameterNumber":2,"parameterNumberName":"U-component_of_CURRENTS"},"data":[0,0,0,0,0,0,0,0,0,0,0,0,0,0,0,0,0,0,0,0,0,0,0,0,0,0,0,0,0,0,0,0,0,0,0,0,0,0,0,0,0,0,0,0,0,0,0,0,0,0,0,0,0,0,0,0,0,0,0.37,0.3701,0,0.3743,0.3743,0.3743,0.3725,0.3724,0.3723,0.3722,0.3713,0.3713,0.3714,0,0,0,0,0,0,0,0,0,0,0,0,0,0.3486,0.3491,0.37,0.3701,0.3701,0.3743,0.3743,0.3744,0.3725,0.3724,0.3723,0.3722,0.3712,0.3713,0.3714,0,0,0,0,0,0,0,0,0,0,0,0,0,0.3559,0.3493,0.37,0.3697,0.3698,0.3742,0.3743,0.3744,0.3726,0.3724,0.3723,0.3721,0.3712,0.3713,0.3714,0.375,0,0,0.3717,0.3717,0,0,0,0,0,0,0,0,0.3555,0.3567,0.3697,0.3698,0.3698,0.3727,0.3664,0.3743,0.3726,0.3715,0.3722,0.3721,0.3714,0.3715,0.3726,0.375,0.3749,0.3717,0.3718,0.3718,0.3718,0,0,0,0,0,0,0,0.355,0.3564,0.3717,0.3698,0.3699,0.3654,0.3664,0.3679,0.3721,0.3716,0.3714,0.372,0.3714,0.3725,0.3726,0.3749,0.3717,0.3718,0.3719,0.3719,0.3926,0.393,0,0,0,0,0,0,0.3555,0.3561,0.3715,0.3718,0.3622,0.366,0.367,0.3719,0.3722,0.3721,0.3722,0.3719,0.3724,0.3725,0.3725,0.3879,0.3718,0.3719,0.372,0.3921,0.3927,0.3932,0,0,0,0,0,0,0.3551,0.357,0.3713,0.3637,0.3652,0.3666,0.372,0.3721,0.3736,0.3727,0.3725,0.3736,0.3723,0.3724,0.3782,0.3873,0.372,0.372,0.3915,0.3923,0.3929,0.4114,0,0,0,0,0,0,0.3545,0.357,0.3607,0.364,0.3657,0.3799,0.3722,0.3723,0.3742,0.3739,0.3739,0.3736,0.3722,0.3781,0.3783,0.3872,0.3721,0.3909,0.3918,0.3927,0.4102,0.4127,0.4148,0,0,0,0,0,0.3538,0.3623,0.361,0.3627,0.371,0.3803,0.3812,0.381,0.3744,0.3805,0.3787,0.3736,0.3841,0.3786,0.3787,0.3878,0.3904,0.3916,0.3926,0.4091,0.4122,0.4148,0,0,0,0,0,0,0.3562,0.363,0.3616,0.3718,0.3773,0.3802,0.3842,0.3819,0.3849,0.383,0.3788,0.379,0.3892,0.3856,0.3795,0.3969,0.3869,0.3881,0.3995,0.4023,0.4046,0.4059,0.3722,0,0,0,0,0,0.358,0.3656,0.3707,0.379,0.3815,0.3816,0.3843,0.3852,0.3875,0.3884,0.3877,0.3883,0.3941,0.3952,0.4,0.4068,0.4067,0.4134,0.4157,0.4177,0.4194,0.4275,0.4307,0.3968,0.3968,0.3968,0,0,0.3605,0.3655,0.3694,0.3798,0.3819,0.3886,0.3832,0.3903,0.3959,0.3879,0.3948,0.3973,0.3984,0.4095,0.4134,0.4067,0.4282,0.4191,0.4208,0.4213,0.429,0.4322,0.4351,0.3976,0.3974,0.3973,0,0,0.3696,0.3742,0.3823,0.3873,0.3936,0.3956,0.3978,0.4023,0.405,0.4125,0.4103,0.4185,0.4218,0.4281,0.4303,0.4477,0.4419,0.4482,0.4589,0.4669,0.4697,0.4721,0.4794,0.4823,0.4472,0.4473,0.4473,0,0.3713,0.3819,0.3864,0.3942,0.3971,0.3985,0.4054,0.4111,0.4172,0.419,0.4176,0.4285,0.4322,0.4447,0.4541,0.4533,0.4548,0.4476,0.4698,0.4722,0.4743,0.4811,0.4841,0.4483,0.4482,0.448,0.448,0,0.3853,0.3918,0.3972,0.4063,0.4121,0.4196,0.4258,0.4318,0.4321,0.4349,0.4474,0.4546,0.4588,0.4655,0.466,0.4841,0.4796,0.4733,0.462,0.4788,0.485,0.4878,0.4497,0.4494,0.4491,0.4488,0,0,0.3929,0.4041,0.4054,0.4073,0.4177,0.4232,0.4341,0.4431,0.4453,0.4565,0.462,0.4808,0.4805,0.4837,0.4869,0.4979,0.5201,0.4935,0.4934,0.4996,0.5375,0.5271,0.529,0.5158,0.5164,0.5168,0.5366,0,0.4005,0.413,0.4181,0.4274,0.4323,0.436,0.4439,0.4519,0.4575,0.4648,0.4761,0.4838,0.4882,0.491,0.5046,0.5155,0.5277,0.5153,0.5211,0.5214,0.5091,0.532,0.5057,0.5204,0.5392,0.5396,0.54,0,0.4104,0.4172,0.4264,0.4316,0.4339,0.439,0.4459,0.4543,0.4657,0.4693,0.4796,0.4851,0.5067,0.5055,0.5339,0.5245,0.5346,0.5431,0.5437,0.5289,0.5162,0.5062,0.5245,0.5071,0.5441,0.5438,0.5435,0,0.4091,0.421,0.4265,0.4293,0.4382,0.4403,0.4445,0.4534,0.4578,0.4713,0.474,0.4947,0.5045,0.5229,0.5418,0.5386,0.5697,0.5642,0.5647,0.5639,0.5403,0.5364,0.5409,0.585,0.585,0.5849,0.5849,0,0.4125,0.4162,0.4244,0.4271,0.4304,0.4372,0.4401,0.4464,0.455,0.4602,0.4745,0.4835,0.5096,0.5278,0.5448,0.564,0.5709,0.5731,0.5707,0.5463,0.5429,0.5249,0.5171,0.5856,0.5855,0.5853,0.5852,0,0.4074,0.414,0.4192,0.4275,0.4288,0.4301,0.4338,0.4364,0.4447,0.4527,0.4571,0.4792,0.5034,0.5258,0.5568,0.5647,0.5685,0.5876,0.5575,0.5514,0.5337,0.5278,0.5211,0.5076,0.5945,0.5944,0.5943,0,0.404,0.4074,0.4162,0.417,0.4189,0.4213,0.4222,0.4299,0.4326,0.4498,0.454,0.478,0.4922,0.5311,0.5518,0.5765,0.5628,0.5641,0.5555,0.5349,0.5269,0.5118,0.4999,0.5336,0.5331,0.5326,0.5322,0,0.3976,0.4014,0.4064,0.4081,0.4086,0.4093,0.4112,0.4111,0.4221,0.429,0.4411,0.4535,0.4887,0.504,0.5338,0.5461,0.5332,0.5551,0.5416,0.489,0.4651,0.4496,0.5186,0.528,0.5284,0.5287,0.529,0.5291,0.3903,0.3912,0.3966,0.3972,0.3976,0.3938,0.3896,0.3943,0.396,0.4036,0.4242,0.436,0.4595,0.4985,0.5073,0.502,0.5091,0.4912,0.4896,0.4793,0.454,0.5148,0.5151,0.5154,0.5157,0.5159,0.5162,0,0.3785,0.3821,0.3839,0.3819,0.3767,0.3814,0.3797,0.3741,0.372,0.388,0.3971,0.409,0.4215,0.44,0.4491,0.4383,0.4246,0.4262,0.3975,0.3923,0.4528,0.4371,0.4105,0.4105,0.4105,0.4105,0.4106,0.4106,0.3727,0.3708,0.3732,0.3614,0.3592,0.3465,0.3434,0.3399,0.3459,0.3455,0.3501,0.3621,0.384,0.3986,0.3898,0.3816,0.3566,0.3414,0.3477,0.386,0.3917,0.3971,0.3806,0.3426,0.3425,0.2686,0.268,0.2676]},{"header":{"parameterUnit":"m.s-1","parameterCategory":2,"la1":30.2991,"la2":30.254,"lo1":-89.0895,"lo2":-89.0444,"dy":0.0017,"dx":0.0017,"nx":28,"ny":28,"refTime":"2025-07-13T21:00:00:Z","depth":"0","parameterNumber":3,"parameterNumberName":"V-component_of_CURRENTS"},"data":[0,0,0,0,0,0,0,0,0,0,0,0,0,0,0,0,0,0,0,0,0,0,0,0,0,0,0,0,0,0,0,0,0,0,0,0,0,0,0,0,0,0,0,0,0,0,0,0,0,0,0,0,0,0,0,0,0,0,0.0492,0.0491,0,0.0422,0.0421,0.0421,0.0344,0.0342,0.0341,0.034,0.0176,0.0173,0.0169,0,0,0,0,0,0,0,0,0,0,0,0,0,0.0439,0.0442,0.0492,0.0491,0.0489,0.0422,0.0421,0.0421,0.0344,0.0342,0.0341,0.0339,0.0177,0.0173,0.0169,0,0,0,0,0,0,0,0,0,0,0,0,0,0.0428,0.0442,0.0492,0.0441,0.0436,0.0422,0.0421,0.042,0.0344,0.0342,0.034,0.0338,0.0178,0.0173,0.0169,0.018,0,0,0.0154,0.0152,0,0,0,0,0,0,0,0,0.0429,0.043,0.045,0.0445,0.0439,0.0387,0.0342,0.0334,0.0345,0.0381,0.034,0.0337,0.0238,0.0228,0.0224,0.0172,0.0165,0.0154,0.0151,0.0149,0.0148,0,0,0,0,0,0,0,0.043,0.0432,0.0466,0.0449,0.0442,0.0381,0.0379,0.0341,0.0322,0.0378,0.0372,0.0361,0.0234,0.0229,0.0219,0.0163,0.0154,0.015,0.0147,0.0145,0.0156,0.0159,0,0,0,0,0,0,0.0443,0.0434,0.0468,0.0464,0.0426,0.0384,0.0381,0.0408,0.0324,0.0309,0.0363,0.0358,0.0238,0.0225,0.0213,0.0289,0.0149,0.0145,0.0142,0.0153,0.0157,0.016,0,0,0,0,0,0,0.0443,0.0448,0.0471,0.0442,0.0441,0.0388,0.0417,0.0407,0.0396,0.0313,0.0296,0.0361,0.0236,0.0219,0.0192,0.0279,0.0143,0.0138,0.015,0.0154,0.0159,0.0398,0,0,0,0,0,0,0.0442,0.045,0.0478,0.0445,0.0443,0.0507,0.0419,0.0407,0.0392,0.0384,0.0306,0.0289,0.0233,0.02,0.0188,0.027,0.0135,0.0146,0.0152,0.0157,0.0386,0.041,0.043,0,0,0,0,0,0.0441,0.0518,0.0481,0.0484,0.0484,0.051,0.0506,0.0459,0.0394,0.0432,0.0354,0.0291,0.0229,0.0198,0.0183,0.0267,0.0143,0.015,0.0157,0.0376,0.0405,0.043,0,0,0,0,0,0,0.0533,0.0516,0.0475,0.0546,0.0536,0.0497,0.0522,0.0468,0.0437,0.0423,0.0315,0.0296,0.0315,0.0248,0.0217,0.0287,0.0183,0.0187,0.0354,0.0381,0.0403,0.0435,0.0131,0,0,0,0,0,0.0558,0.0606,0.0568,0.0631,0.0623,0.0562,0.056,0.0537,0.0498,0.0481,0.0411,0.0352,0.0337,0.032,0.0293,0.0315,0.0265,0.0363,0.0385,0.0405,0.0421,0.0437,0.0463,0.0183,0.0183,0.0183,0,0,0.0611,0.0609,0.0635,0.0651,0.0628,0.0654,0.056,0.0591,0.0615,0.0469,0.0475,0.0425,0.0358,0.0401,0.0404,0.0351,0.0458,0.0414,0.0431,0.0437,0.0447,0.0475,0.0499,0.0188,0.0187,0.0186,0,0,0.073,0.0735,0.0788,0.0791,0.0778,0.0752,0.076,0.0722,0.0709,0.0715,0.0626,0.0631,0.0569,0.0569,0.0553,0.0677,0.0577,0.0661,0.08,0.0817,0.0841,0.0861,0.0834,0.085,0.0672,0.0672,0.0673,0,0.078,0.0837,0.0814,0.0856,0.086,0.0795,0.0839,0.0843,0.0803,0.0795,0.0752,0.0712,0.0669,0.0723,0.0779,0.0736,0.0694,0.0708,0.0849,0.0868,0.0884,0.0852,0.0866,0.0685,0.0683,0.0682,0.0681,0,0.0915,0.095,0.0993,0.101,0.1031,0.1077,0.1056,0.1075,0.1031,0.1002,0.1035,0.0995,0.0962,0.098,0.0918,0.1022,0.0937,0.088,0.0788,0.0928,0.0883,0.0894,0.0702,0.0698,0.0694,0.0691,0,0,0.1026,0.1067,0.1075,0.1083,0.1108,0.1136,0.1204,0.1219,0.124,0.124,0.1273,0.1298,0.1246,0.1226,0.1172,0.1209,0.1308,0.1105,0.11,0.1089,0.1308,0.1231,0.1233,0.1265,0.1268,0.1271,0.1231,0,0.1109,0.1195,0.1206,0.1287,0.1311,0.1301,0.1362,0.1385,0.1377,0.1405,0.1404,0.1417,0.1347,0.1349,0.1384,0.1325,0.1345,0.1321,0.1163,0.1158,0.1083,0.1248,0.11,0.1051,0.124,0.1242,0.1243,0,0.1205,0.1244,0.1323,0.1375,0.1387,0.1439,0.1492,0.1545,0.1584,0.1583,0.1608,0.1566,0.1634,0.1552,0.155,0.1527,0.144,0.1394,0.139,0.1242,0.1103,0.0939,0.1061,0.0798,0.1258,0.1257,0.1256,0,0.124,0.1319,0.1373,0.1396,0.1459,0.1499,0.1539,0.1585,0.1632,0.169,0.1729,0.1749,0.1788,0.1723,0.162,0.1584,0.1593,0.1518,0.1363,0.1352,0.1159,0.1128,0.1017,0.1513,0.1514,0.1514,0.1514,0,0.1305,0.135,0.1388,0.1419,0.1497,0.1537,0.1623,0.1662,0.1743,0.1833,0.1814,0.1904,0.1838,0.1815,0.1686,0.157,0.1633,0.1426,0.1366,0.1236,0.1214,0.0915,0.0812,0.1512,0.1512,0.1513,0.1513,0,0.1337,0.1358,0.1417,0.1482,0.1507,0.1563,0.1669,0.1747,0.1809,0.1941,0.1975,0.2042,0.2045,0.1919,0.1832,0.1666,0.1388,0.1463,0.1299,0.1223,0.0843,0.076,0.062,0.0525,0.1314,0.1313,0.1311,0,0.1354,0.1385,0.1449,0.149,0.152,0.1605,0.1687,0.1767,0.1868,0.2037,0.213,0.2173,0.2229,0.2053,0.1787,0.1542,0.1331,0.12,0.1132,0.0844,0.0707,0.0648,0.0575,0.0955,0.095,0.0947,0.0944,0,0.1383,0.1398,0.145,0.1527,0.16,0.1707,0.1831,0.1914,0.2059,0.2183,0.2369,0.2427,0.2274,0.2025,0.1663,0.144,0.0991,0.1122,0.0873,0.0485,0.0365,0.0233,0.0927,0.0913,0.0916,0.0919,0.092,0.0921,0.1386,0.1424,0.1481,0.1572,0.1666,0.1811,0.1915,0.2076,0.2247,0.2472,0.2532,0.2643,0.2187,0.1721,0.141,0.0683,0.0818,0.0419,0.036,0.0341,0.0209,0.0835,0.0728,0.0729,0.0731,0.0733,0.0734,0,0.1369,0.1438,0.1528,0.1631,0.1758,0.1811,0.2024,0.2159,0.2378,0.2582,0.274,0.2495,0.1924,0.1351,0.0437,-0.0021,-0.0169,-0.0294,-0.0448,-0.0466,0.0098,0.0036,-0.0286,-0.0286,-0.0286,-0.0285,-0.0285,-0.0285,0.1358,0.1433,0.1505,0.169,0.1787,0.1969,0.2099,0.2312,0.2491,0.2681,0.2701,0.2698,0.2118,0.0538,-0.0531,-0.0755,-0.1012,-0.1113,-0.1134,-0.0835,-0.0775,-0.0717,-0.0803,-0.1295,-0.1296,-0.1741,-0.1746,-0.175]}],[{"header":{"parameterUnit":"m.s-1","parameterCategory":2,"la1":30.2991,"la2":30.254,"lo1":-89.0895,"lo2":-89.0444,"dy":0.0017,"dx":0.0017,"nx":28,"ny":28,"refTime":"2025-07-13T21:00:00:Z","depth":"2","parameterNumber":2,"parameterNumberName":"U-component_of_CURRENTS"},"data":[0,0,0,0,0,0,0,0,0,0,0,0,0,0,0,0,0,0,0,0,0,0,0,0,0,0,0,0,0,0,0,0,0,0,0,0,0,0,0,0,0,0,0,0,0,0,0,0,0,0,0,0,0,0,0,0,0,0,0.3276,0.3276,0,0.3343,0.3344,0.3345,0.3336,0.3334,0.3333,0.3332,0.3259,0.3258,0.3258,0,0,0,0,0,0,0,0,0,0,0,0,0,0.3105,0.3108,0.3276,0.3276,0.3277,0.3343,0.3344,0.3345,0.3336,0.3334,0.3333,0.3331,0.3259,0.3258,0.3258,0,0,0,0,0,0,0,0,0,0,0,0,0,0.3178,0.3109,0.3276,0.3279,0.328,0.3342,0.3344,0.3345,0.3336,0.3334,0.3332,0.3331,0.326,0.3259,0.3257,0.329,0,0,0.3254,0.3254,0,0,0,0,0,0,0,0,0.3174,0.3185,0.3278,0.3279,0.328,0.3327,0.3257,0.3319,0.3337,0.3317,0.3332,0.333,0.3269,0.3267,0.3289,0.3287,0.3284,0.3254,0.3253,0.3253,0.3253,0,0,0,0,0,0,0,0.3169,0.3182,0.3304,0.3278,0.328,0.3264,0.3273,0.3269,0.3302,0.3319,0.3318,0.3322,0.3268,0.329,0.3287,0.3282,0.3254,0.3253,0.3252,0.3252,0.3388,0.3392,0,0,0,0,0,0,0.3161,0.3178,0.3302,0.3306,0.3218,0.3269,0.3279,0.3316,0.3305,0.3302,0.3324,0.3322,0.3293,0.3288,0.3284,0.3386,0.3253,0.3252,0.3251,0.3384,0.3389,0.3394,0,0,0,0,0,0,0.3158,0.3173,0.33,0.3239,0.3254,0.3274,0.3315,0.3318,0.3353,0.331,0.3305,0.3357,0.3291,0.3285,0.3308,0.338,0.3251,0.325,0.3379,0.3386,0.3392,0.3548,0,0,0,0,0,0,0.3153,0.3173,0.3218,0.324,0.3257,0.3366,0.3317,0.332,0.3357,0.3355,0.3337,0.3327,0.3289,0.331,0.3307,0.3376,0.325,0.3374,0.3382,0.339,0.3537,0.3559,0.3577,0,0,0,0,0,0.3148,0.3189,0.3221,0.3236,0.3313,0.3369,0.3379,0.3384,0.336,0.3404,0.3384,0.3329,0.3359,0.3312,0.3308,0.3378,0.337,0.338,0.3389,0.3528,0.3555,0.3577,0,0,0,0,0,0,0.3136,0.3193,0.3227,0.3288,0.3347,0.3367,0.3391,0.3405,0.3429,0.3404,0.3369,0.3362,0.3424,0.3382,0.3331,0.3447,0.3362,0.3371,0.347,0.3494,0.3513,0.3446,0.3249,0,0,0,0,0,0.3162,0.32,0.3272,0.3318,0.3351,0.3385,0.3411,0.3417,0.3428,0.3438,0.3454,0.3448,0.3464,0.3458,0.3476,0.3517,0.3453,0.3567,0.3587,0.3604,0.3551,0.3574,0.3589,0.3426,0.3425,0.3425,0,0,0.3149,0.3199,0.3213,0.3318,0.3351,0.3366,0.3396,0.3431,0.3452,0.3422,0.3481,0.3528,0.3497,0.3564,0.3587,0.3528,0.3623,0.3616,0.3631,0.3566,0.3585,0.36,0.3613,0.3432,0.3431,0.343,0,0,0.3122,0.3216,0.3231,0.327,0.3337,0.337,0.3389,0.3462,0.352,0.3577,0.3584,0.3641,0.3682,0.3683,0.3672,0.38,0.3746,0.3869,0.3889,0.3915,0.3927,0.3936,0.3885,0.3888,0.3858,0.3859,0.3859,0,0.3109,0.3152,0.3246,0.3256,0.3267,0.3365,0.336,0.3436,0.3519,0.3582,0.3598,0.3717,0.3703,0.3752,0.3818,0.3833,0.3844,0.3798,0.3936,0.3944,0.3951,0.3896,0.3897,0.3867,0.3866,0.3866,0.3865,0,0.3082,0.3107,0.3114,0.316,0.3203,0.3219,0.3316,0.3419,0.3503,0.3579,0.3729,0.3773,0.3822,0.3887,0.3875,0.3972,0.3964,0.3977,0.3863,0.3976,0.3912,0.3911,0.388,0.3877,0.3874,0.3872,0,0,0.3029,0.3089,0.3078,0.3092,0.3148,0.3185,0.325,0.3374,0.3458,0.3597,0.3706,0.3792,0.3889,0.3885,0.3959,0.3995,0.4063,0.4031,0.4029,0.3953,0.4113,0.4007,0.3994,0.4159,0.416,0.4161,0.405,0,0.2975,0.2979,0.3016,0.2997,0.3009,0.3101,0.3165,0.328,0.3444,0.3606,0.371,0.384,0.3874,0.396,0.4002,0.4087,0.4071,0.4088,0.4032,0.4026,0.3899,0.3992,0.3752,0.3627,0.4047,0.4047,0.4047,0,0.2895,0.2935,0.2917,0.2961,0.2977,0.2999,0.3157,0.323,0.3451,0.3589,0.3737,0.3858,0.3957,0.3979,0.4055,0.4104,0.4085,0.4111,0.4108,0.3933,0.3918,0.3583,0.3607,0.4043,0.4043,0.4044,0.4044,0,0.2793,0.283,0.2836,0.2836,0.2923,0.2977,0.3053,0.3245,0.3353,0.3616,0.3729,0.3877,0.3975,0.401,0.4052,0.4093,0.4111,0.4143,0.3985,0.3974,0.3698,0.3663,0.4105,0.4105,0.4105,0.4106,0.4106,0,0.2666,0.2663,0.2823,0.2804,0.2889,0.295,0.3067,0.3209,0.3392,0.3511,0.3733,0.3838,0.4012,0.4057,0.4054,0.4009,0.4078,0.396,0.3947,0.375,0.3723,0.4023,0.4015,0.4101,0.4102,0.4103,0.4104,0,0.2488,0.2571,0.2588,0.2733,0.2824,0.2872,0.305,0.3135,0.3347,0.351,0.3582,0.3824,0.3914,0.3992,0.4044,0.3992,0.3957,0.3887,0.3612,0.3569,0.3791,0.3794,0.3713,0.3708,0.3704,0.3701,0.3699,0,0.2414,0.2411,0.2545,0.2611,0.2691,0.2825,0.2917,0.3111,0.3199,0.3466,0.351,0.3689,0.3761,0.3796,0.3772,0.37,0.3814,0.3413,0.3414,0.3759,0.3756,0.3764,0.3771,0.3105,0.3098,0.3092,0.3087,0,0.2282,0.2309,0.2312,0.2469,0.2583,0.2695,0.2851,0.2894,0.3097,0.3229,0.336,0.3433,0.3535,0.3415,0.3378,0.3307,0.343,0.3288,0.3725,0.3262,0.3184,0.3182,0.3209,0.3034,0.3039,0.3043,0.3046,0.3048,0.2184,0.2161,0.219,0.2321,0.2448,0.2553,0.2581,0.2702,0.2776,0.2878,0.3036,0.3066,0.314,0.2973,0.2881,0.2865,0.3075,0.297,0.299,0.3015,0.2985,0.2908,0.2694,0.2698,0.27,0.2703,0.2705,0,0.2146,0.2108,0.2114,0.2208,0.2258,0.2435,0.2531,0.249,0.2511,0.2578,0.2632,0.242,0.2374,0.2478,0.2366,0.2362,0.2362,0.2299,0.2292,0.2346,0.2393,0.2334,0.1868,0.1866,0.1863,0.1861,0,0,0.2085,0.2034,0.2,0.202,0.2145,0.2197,0.223,0.2171,0.2174,0.2025,0.201,0.2152,0.2347,0.2032,0.2027,0.1938,0.2122,0.1875,0.2547,0.2589,0.2633,0.2784,0.2752,0,0,0,0,0]},{"header":{"parameterUnit":"m.s-1","parameterCategory":2,"la1":30.2991,"la2":30.254,"lo1":-89.0895,"lo2":-89.0444,"dy":0.0017,"dx":0.0017,"nx":28,"ny":28,"refTime":"2025-07-13T21:00:00:Z","depth":"2","parameterNumber":3,"parameterNumberName":"V-component_of_CURRENTS"},"data":[0,0,0,0,0,0,0,0,0,0,0,0,0,0,0,0,0,0,0,0,0,0,0,0,0,0,0,0,0,0,0,0,0,0,0,0,0,0,0,0,0,0,0,0,0,0,0,0,0,0,0,0,0,0,0,0,0,0,-0.006,-0.006,0,-0.0146,-0.0149,-0.0151,-0.0264,-0.0265,-0.0266,-0.0266,-0.0363,-0.0365,-0.0367,0,0,0,0,0,0,0,0,0,0,0,0,0,-0.0053,-0.0054,-0.006,-0.006,-0.006,-0.0146,-0.0149,-0.0151,-0.0264,-0.0265,-0.0266,-0.0266,-0.0363,-0.0365,-0.0368,0,0,0,0,0,0,0,0,0,0,0,0,0,-0.0102,-0.0054,-0.006,-0.0117,-0.0122,-0.0146,-0.0149,-0.0152,-0.0264,-0.0265,-0.0266,-0.0267,-0.0362,-0.0365,-0.0368,-0.0367,0,0,-0.0377,-0.0378,0,0,0,0,0,0,0,0,-0.0099,-0.0104,-0.0108,-0.0113,-0.0118,-0.0184,-0.0181,-0.022,-0.0264,-0.0224,-0.0266,-0.0267,-0.0295,-0.0303,-0.0337,-0.0372,-0.0376,-0.0377,-0.0379,-0.038,-0.0381,0,0,0,0,0,0,0,-0.0096,-0.0101,-0.0108,-0.0108,-0.0114,-0.0157,-0.0166,-0.0191,-0.0264,-0.0228,-0.0233,-0.0221,-0.03,-0.0334,-0.0339,-0.0378,-0.0377,-0.038,-0.0382,-0.0383,-0.0365,-0.0362,0,0,0,0,0,0,-0.0054,-0.0097,-0.0105,-0.0109,-0.0096,-0.0155,-0.0166,-0.0173,-0.0263,-0.0274,-0.022,-0.0225,-0.0328,-0.0336,-0.0343,-0.0315,-0.038,-0.0383,-0.0385,-0.0367,-0.0364,-0.0362,0,0,0,0,0,0,-0.0054,-0.0054,-0.0101,-0.0094,-0.0101,-0.0153,-0.016,-0.0174,-0.0177,-0.0255,-0.0269,-0.0203,-0.0329,-0.0339,-0.0354,-0.0321,-0.0385,-0.0387,-0.037,-0.0366,-0.0363,-0.0279,0,0,0,0,0,0,-0.0054,-0.0054,-0.0041,-0.0091,-0.0099,-0.0095,-0.0158,-0.0174,-0.0163,-0.0171,-0.0245,-0.0258,-0.0331,-0.0349,-0.0357,-0.0326,-0.039,-0.0372,-0.0368,-0.0364,-0.0284,-0.0273,-0.0263,0,0,0,0,0,-0.0053,-0.0036,-0.004,-0.004,-0.0081,-0.0092,-0.0102,-0.0151,-0.016,-0.0159,-0.0213,-0.0254,-0.0327,-0.0351,-0.036,-0.0329,-0.0375,-0.0369,-0.0364,-0.0289,-0.0275,-0.0263,0,0,0,0,0,0,-0.0022,-0.0046,-0.0052,-0.0041,-0.0048,-0.0106,-0.0102,-0.0116,-0.0158,-0.0171,-0.0238,-0.0255,-0.0251,-0.0289,-0.0313,-0.0305,-0.0351,-0.0347,-0.029,-0.0277,-0.0267,-0.033,-0.0392,0,0,0,0,0,-0.0001,-0.0009,-0.0018,-0.001,-0.0002,-0.0037,-0.0041,-0.0075,-0.0113,-0.0132,-0.0155,-0.0196,-0.024,-0.0258,-0.0292,-0.0291,-0.036,-0.0268,-0.0258,-0.0249,-0.0303,-0.0327,-0.0326,-0.0345,-0.0345,-0.0345,0,0,-0.0021,0.0001,-0.0027,-0.0004,-0.002,-0.0054,-0.0047,-0.005,-0.0081,-0.0133,-0.0147,-0.0152,-0.0227,-0.0241,-0.024,-0.0269,-0.0278,-0.0242,-0.0235,-0.0295,-0.0322,-0.0321,-0.032,-0.0341,-0.0342,-0.0342,0,0,-0.0038,-0.0002,-0.0023,-0.0021,-0.0003,-0.0031,-0.0011,-0.0022,-0.002,-0.0036,-0.0073,-0.008,-0.0107,-0.0175,-0.0218,-0.0164,-0.0213,-0.0109,-0.0122,-0.0142,-0.0143,-0.0144,-0.0237,-0.0247,-0.0112,-0.0112,-0.0112,0,-0.0039,-0.0054,-0.0027,-0.0026,-0.0022,-0.0015,-0.0038,-0.0056,-0.0065,-0.004,-0.0035,-0.0055,-0.0117,-0.0162,-0.0162,-0.0152,-0.0167,-0.0169,-0.0133,-0.0135,-0.0138,-0.0233,-0.0246,-0.0107,-0.0108,-0.0108,-0.0109,0,-0.0095,-0.0093,-0.0086,-0.0105,-0.0097,-0.0102,-0.0105,-0.0073,-0.0044,-0.0055,-0.001,-0.006,-0.0077,-0.0066,-0.013,-0.0135,-0.0142,-0.0109,-0.0176,-0.0132,-0.0234,-0.0249,-0.0101,-0.0102,-0.0104,-0.0105,0,0,-0.0117,-0.0131,-0.012,-0.0118,-0.0123,-0.0114,-0.0132,-0.0119,-0.0076,-0.0075,-0.0028,-0.0107,-0.0056,-0.0102,-0.0095,-0.0138,-0.0196,-0.0125,-0.0128,-0.024,-0.0261,-0.0228,-0.0242,-0.0105,-0.0107,-0.0108,-0.0329,0,-0.0151,-0.0162,-0.016,-0.0189,-0.0196,-0.0169,-0.0175,-0.0164,-0.0099,-0.0044,-0.0075,-0.0037,-0.0086,-0.0032,-0.0094,-0.0132,-0.0226,-0.0144,-0.0273,-0.0281,-0.0271,-0.0255,-0.0208,-0.0394,-0.0344,-0.0347,-0.0349,0,-0.0202,-0.0178,-0.0202,-0.0179,-0.0171,-0.0191,-0.01,-0.0099,-0.0057,0.0019,0.0049,0.006,-0.001,-0.0025,-0.0173,-0.0083,-0.0209,-0.0274,-0.0281,-0.0306,-0.0273,-0.0426,-0.0424,-0.0374,-0.0372,-0.037,-0.0369,0,-0.0203,-0.0201,-0.0195,-0.0199,-0.0192,-0.0155,-0.0139,-0.0074,0.0001,0.0091,0.0195,0.0118,0.0139,-0.0008,-0.0181,-0.0142,-0.0355,-0.0316,-0.0446,-0.0447,-0.0477,-0.0477,-0.0496,-0.0496,-0.0496,-0.0495,-0.0494,0,-0.0231,-0.0222,-0.0183,-0.018,-0.0108,-0.0124,-0.002,0.0042,0.0118,0.0205,0.0251,0.0305,0.0164,0.0038,-0.0164,-0.0352,-0.0355,-0.049,-0.0495,-0.0443,-0.0436,-0.0467,-0.0461,-0.0503,-0.0501,-0.05,-0.0498,0,-0.026,-0.0248,-0.0229,-0.0175,-0.0113,-0.0069,0.0058,0.0134,0.0248,0.0379,0.0414,0.043,0.0301,0.0103,-0.0161,-0.0287,-0.0505,-0.0605,-0.0572,-0.0566,-0.0606,-0.0592,-0.0744,-0.0745,-0.0745,-0.0746,-0.0746,0,-0.0264,-0.0266,-0.0185,-0.0111,-0.0069,0.0029,0.0118,0.0207,0.0301,0.0434,0.0484,0.0426,0.0382,0.0049,-0.0213,-0.0537,-0.0595,-0.068,-0.0618,-0.0639,-0.0629,-0.0614,-0.0601,-0.0654,-0.0653,-0.0653,-0.0653,0,-0.0256,-0.025,-0.0237,-0.0085,0.0029,0.016,0.0282,0.037,0.0463,0.0599,0.0657,0.0615,0.035,0.0082,-0.028,-0.0499,-0.0597,-0.0677,-0.071,-0.0558,-0.0559,-0.0546,-0.0535,-0.0649,-0.0649,-0.065,-0.065,-0.065,-0.0234,-0.0225,-0.0188,-0.0045,0.0099,0.0281,0.0394,0.0517,0.0663,0.0853,0.0731,0.0769,0.044,0.0048,-0.0302,-0.0593,-0.0608,-0.0687,-0.0687,-0.0687,-0.0597,-0.0593,-0.068,-0.0681,-0.0681,-0.0682,-0.0682,0,-0.0128,-0.0148,-0.0096,0.0059,0.0217,0.0316,0.0515,0.0639,0.0834,0.0948,0.1012,0.0768,0.0484,0.0119,-0.0296,-0.0569,-0.0587,-0.0652,-0.062,-0.0623,-0.0625,-0.0529,-0.0597,-0.0597,-0.0597,-0.0597,0,0,-0.0099,-0.0063,-0.0075,0.0158,0.0312,0.0542,0.0675,0.0875,0.1004,0.113,0.1167,0.1116,0.0636,0.037,-0.0061,-0.0312,-0.0382,-0.0353,-0.0396,-0.0312,-0.0309,-0.0632,-0.0485,0,0,0,0,0]}],[{"header":{"parameterUnit":"m.s-1","parameterCategory":2,"la1":30.2991,"la2":30.254,"lo1":-89.0895,"lo2":-89.0444,"dy":0.0017,"dx":0.0017,"nx":28,"ny":28,"refTime":"2025-07-13T21:00:00:Z","depth":"4","parameterNumber":2,"parameterNumberName":"U-component_of_CURRENTS"},"data":[0,0,0,0,0,0,0,0,0,0,0,0,0,0,0,0,0,0,0,0,0,0,0,0,0,0,0,0,0,0,0,0,0,0,0,0,0,0,0,0,0,0,0,0,0,0,0,0,0,0,0,0,0,0,0,0,0,0,0.0636,0.0637,0,0.0712,0.0713,0.0714,0.0818,0.082,0.0821,0.0823,0.0954,0.0956,0.0958,0,0,0,0,0,0,0,0,0,0,0,0,0,0.0706,0.0704,0.0636,0.0637,0.0638,0.0712,0.0713,0.0715,0.0818,0.082,0.0822,0.0824,0.0953,0.0955,0.0958,0,0,0,0,0,0,0,0,0,0,0,0,0,0.0719,0.0703,0.0636,0.0697,0.0704,0.0712,0.0713,0.0715,0.0817,0.082,0.0822,0.0825,0.0952,0.0955,0.0958,0.0927,0,0,0.0967,0.0968,0,0,0,0,0,0,0,0,0.0718,0.0716,0.0687,0.0693,0.07,0.0757,0.0786,0.0788,0.0817,0.0775,0.0823,0.0826,0.089,0.0899,0.0908,0.0933,0.0939,0.0967,0.0969,0.097,0.0971,0,0,0,0,0,0,0,0.0717,0.0715,0.0668,0.0688,0.0696,0.0764,0.0768,0.0788,0.082,0.0779,0.0787,0.0792,0.0895,0.0905,0.0912,0.0941,0.0967,0.097,0.0972,0.0973,0.1249,0.1254,0,0,0,0,0,0,0.0695,0.0712,0.0665,0.067,0.0714,0.076,0.0765,0.0737,0.0819,0.0833,0.079,0.0797,0.0899,0.0909,0.0917,0.1008,0.097,0.0973,0.0975,0.1243,0.125,0.1256,0,0,0,0,0,0,0.0695,0.0688,0.0662,0.0695,0.0696,0.0756,0.0725,0.0738,0.0805,0.0827,0.0843,0.0851,0.0901,0.0913,0.0988,0.1009,0.0974,0.0977,0.1237,0.1245,0.1253,0.111,0,0,0,0,0,0,0.0696,0.0687,0.0684,0.0691,0.0693,0.0716,0.0723,0.0737,0.08,0.0812,0.0883,0.0894,0.0904,0.0983,0.0991,0.1013,0.0979,0.123,0.1241,0.125,0.1108,0.1113,0.1117,0,0,0,0,0,0.0698,0.0664,0.0682,0.0678,0.0676,0.0718,0.0728,0.0779,0.0802,0.0847,0.089,0.0895,0.1059,0.0987,0.0995,0.1019,0.1225,0.1237,0.125,0.1106,0.1112,0.1117,0,0,0,0,0,0,0.0701,0.0671,0.0691,0.0654,0.0712,0.0737,0.0787,0.0805,0.0871,0.0895,0.0915,0.093,0.1018,0.1069,0.099,0.1156,0.1163,0.1178,0.1053,0.1058,0.1063,0.1108,0.0982,0,0,0,0,0,0.0694,0.0671,0.0683,0.0679,0.0713,0.0761,0.0792,0.082,0.0865,0.09,0.0935,0.101,0.1068,0.11,0.1169,0.1216,0.1249,0.1271,0.1275,0.1277,0.1337,0.1352,0.1359,0.1297,0.1297,0.1297,0,0,0.0701,0.0684,0.0677,0.0682,0.0742,0.0773,0.0791,0.0854,0.0876,0.0899,0.0968,0.1019,0.1095,0.1158,0.1207,0.1197,0.1315,0.1293,0.1291,0.1353,0.1365,0.137,0.1373,0.1306,0.1304,0.1303,0,0,0.0697,0.0702,0.0689,0.0724,0.0788,0.0822,0.085,0.0898,0.0938,0.0997,0.1024,0.1091,0.1188,0.1215,0.1247,0.1335,0.1341,0.1391,0.1417,0.1426,0.1428,0.143,0.1441,0.1445,0.1381,0.1381,0.1381,0,0.071,0.0685,0.071,0.0716,0.0756,0.0847,0.0876,0.0915,0.0974,0.1011,0.1038,0.1186,0.1217,0.1273,0.1315,0.133,0.1353,0.1343,0.1416,0.142,0.1424,0.1436,0.1442,0.1375,0.1376,0.1377,0.1377,0,0.0686,0.0697,0.0719,0.0747,0.0794,0.0852,0.0901,0.0971,0.1041,0.1067,0.1175,0.1216,0.131,0.1327,0.1341,0.1406,0.1415,0.1399,0.1357,0.1419,0.1431,0.1439,0.1368,0.137,0.1371,0.1373,0,0,0.0627,0.0686,0.0694,0.0737,0.0817,0.0855,0.093,0.1018,0.1076,0.1153,0.1219,0.1308,0.1347,0.1399,0.1406,0.1428,0.1432,0.144,0.1443,0.1375,0.1464,0.1418,0.1423,0.1401,0.1403,0.1405,0.1439,0,0.0629,0.0637,0.0666,0.0742,0.0782,0.0885,0.0944,0.1024,0.1116,0.1197,0.1266,0.1349,0.136,0.1404,0.142,0.1454,0.1462,0.1427,0.1491,0.1495,0.1378,0.1434,0.1412,0.1446,0.1448,0.145,0.1451,0,0.0582,0.0604,0.0644,0.0758,0.0791,0.0848,0.1,0.1056,0.1179,0.1251,0.1342,0.1397,0.1468,0.1464,0.1529,0.1506,0.1509,0.1519,0.1518,0.155,0.1467,0.1399,0.1467,0.1466,0.1465,0.1464,0.1463,0,0.0521,0.0596,0.064,0.0667,0.0788,0.086,0.0962,0.1084,0.1163,0.1295,0.1381,0.1447,0.1528,0.1539,0.1585,0.1559,0.1651,0.1586,0.1544,0.1539,0.1619,0.1618,0.1636,0.1636,0.1636,0.1636,0.1635,0,0.0489,0.0524,0.0626,0.0647,0.0735,0.0835,0.0956,0.1061,0.1214,0.13,0.1405,0.1481,0.1565,0.162,0.1609,0.1625,0.1657,0.1594,0.1559,0.1562,0.1555,0.1622,0.1619,0.1637,0.1637,0.1636,0.1636,0,0.0407,0.0468,0.0516,0.065,0.0703,0.0764,0.0971,0.1052,0.1216,0.1337,0.1395,0.1551,0.1633,0.1688,0.1729,0.1676,0.1669,0.1658,0.169,0.165,0.1538,0.153,0.1602,0.1601,0.16,0.1599,0.1599,0,0.0374,0.0379,0.0489,0.0523,0.0598,0.0722,0.0813,0.1024,0.1107,0.135,0.1386,0.1563,0.1636,0.1664,0.1714,0.1708,0.1687,0.1666,0.1597,0.1583,0.1541,0.1535,0.1528,0.1597,0.1597,0.1597,0.1597,0,0.0298,0.0324,0.0361,0.0432,0.0526,0.0626,0.078,0.0849,0.1075,0.1233,0.1368,0.1459,0.157,0.1618,0.1669,0.1637,0.1665,0.1656,0.1656,0.1591,0.1577,0.1536,0.153,0.1594,0.1594,0.1594,0.1594,0,0.0237,0.0227,0.0272,0.0343,0.0439,0.0523,0.0619,0.0762,0.0897,0.1176,0.1201,0.1387,0.1537,0.1583,0.1591,0.1613,0.1575,0.1496,0.1503,0.1507,0.1468,0.1436,0.1411,0,0,0,0,0,0.0188,0.0167,0.0196,0.0267,0.0362,0.043,0.0591,0.0691,0.0906,0.097,0.1105,0.1198,0.133,0.1412,0.1415,0.1531,0.1555,0.1526,0.1458,0.1577,0.158,0.1546,0,0,0,0,0,0,0.0143,0.0142,0.0155,0.0208,0.0248,0.0355,0.0455,0.059,0.0642,0.0856,0.0926,0.1104,0.1228,0.1306,0.138,0.1408,0.1338,0.1645,0.1642,0.1575,0.1578,0.1581,0.1547,0,0,0,0,0]},{"header":{"parameterUnit":"m.s-1","parameterCategory":2,"la1":30.2991,"la2":30.254,"lo1":-89.0895,"lo2":-89.0444,"dy":0.0017,"dx":0.0017,"nx":28,"ny":28,"refTime":"2025-07-13T21:00:00:Z","depth":"4","parameterNumber":3,"parameterNumberName":"V-component_of_CURRENTS"},"data":[0,0,0,0,0,0,0,0,0,0,0,0,0,0,0,0,0,0,0,0,0,0,0,0,0,0,0,0,0,0,0,0,0,0,0,0,0,0,0,0,0,0,0,0,0,0,0,0,0,0,0,0,0,0,0,0,0,0,-0.0111,-0.0111,0,-0.0168,-0.0169,-0.0169,-0.0204,-0.0204,-0.0204,-0.0203,-0.0355,-0.0359,-0.0363,0,0,0,0,0,0,0,0,0,0,0,0,0,-0.0132,-0.0131,-0.0111,-0.0111,-0.0112,-0.0167,-0.0169,-0.017,-0.0204,-0.0204,-0.0203,-0.0203,-0.0354,-0.0359,-0.0364,0,0,0,0,0,0,0,0,0,0,0,0,0,-0.0152,-0.0131,-0.0111,-0.0133,-0.0135,-0.0167,-0.0169,-0.017,-0.0204,-0.0204,-0.0203,-0.0203,-0.0352,-0.0358,-0.0364,-0.0407,0,0,-0.0384,-0.0386,0,0,0,0,0,0,0,0,-0.0151,-0.0152,-0.0129,-0.0131,-0.0134,-0.0175,-0.0232,-0.0253,-0.0204,-0.0181,-0.0203,-0.0203,-0.0302,-0.0312,-0.0327,-0.0414,-0.0421,-0.0384,-0.0388,-0.0391,-0.0392,0,0,0,0,0,0,0,-0.0149,-0.015,-0.0137,-0.013,-0.0132,-0.0174,-0.0176,-0.0236,-0.0246,-0.0183,-0.0185,-0.0186,-0.0304,-0.0321,-0.0331,-0.0423,-0.0384,-0.0389,-0.0393,-0.0396,-0.0606,-0.0608,0,0,0,0,0,0,-0.013,-0.0148,-0.0135,-0.0138,-0.0138,-0.0173,-0.0176,-0.0165,-0.0244,-0.0254,-0.0186,-0.0187,-0.031,-0.0323,-0.0336,-0.0427,-0.0391,-0.0396,-0.04,-0.0604,-0.0607,-0.0609,0,0,0,0,0,0,-0.013,-0.0128,-0.0132,-0.0143,-0.0146,-0.0172,-0.0161,-0.0166,-0.0199,-0.0244,-0.0257,-0.0214,-0.031,-0.0328,-0.0422,-0.0432,-0.0399,-0.0405,-0.0602,-0.0605,-0.0608,-0.0586,0,0,0,0,0,0,-0.013,-0.0127,-0.0129,-0.0141,-0.0144,-0.0172,-0.0161,-0.0167,-0.0197,-0.02,-0.0273,-0.0285,-0.0312,-0.0412,-0.0428,-0.044,-0.041,-0.06,-0.0604,-0.0607,-0.0585,-0.0588,-0.0591,0,0,0,0,0,-0.0131,-0.0108,-0.0129,-0.0128,-0.0139,-0.0173,-0.0181,-0.0201,-0.0199,-0.0228,-0.0281,-0.0284,-0.0444,-0.042,-0.0437,-0.0451,-0.0598,-0.0603,-0.0607,-0.0583,-0.0587,-0.0591,0,0,0,0,0,0,-0.0113,-0.011,-0.0132,-0.011,-0.0158,-0.0178,-0.0197,-0.0213,-0.0274,-0.0286,-0.0322,-0.0341,-0.0432,-0.0452,-0.0424,-0.0524,-0.0516,-0.0524,-0.0493,-0.0497,-0.05,-0.0451,-0.0415,0,0,0,0,0,-0.0113,-0.0095,-0.0129,-0.0119,-0.0146,-0.0183,-0.0201,-0.0225,-0.0268,-0.0294,-0.0342,-0.0398,-0.0461,-0.0486,-0.0558,-0.0611,-0.0615,-0.0629,-0.0632,-0.0634,-0.061,-0.0641,-0.0643,-0.0622,-0.0622,-0.0622,0,0,-0.0115,-0.0098,-0.01,-0.0116,-0.0154,-0.0164,-0.0195,-0.0235,-0.0233,-0.0305,-0.0343,-0.0434,-0.0488,-0.0556,-0.0594,-0.057,-0.0648,-0.064,-0.0641,-0.0614,-0.0646,-0.0647,-0.0649,-0.0625,-0.0625,-0.0624,0,0,-0.0063,-0.0096,-0.0063,-0.009,-0.0133,-0.0174,-0.0189,-0.0244,-0.027,-0.0342,-0.0384,-0.0478,-0.0568,-0.0597,-0.0621,-0.0684,-0.0684,-0.0712,-0.0661,-0.0694,-0.0694,-0.0695,-0.0709,-0.0711,-0.0686,-0.0686,-0.0686,0,-0.0069,-0.0015,-0.007,-0.0036,-0.0047,-0.017,-0.0154,-0.0202,-0.0278,-0.0299,-0.0358,-0.0508,-0.0575,-0.0612,-0.064,-0.0686,-0.0699,-0.0637,-0.0693,-0.0693,-0.0694,-0.0709,-0.0712,-0.0685,-0.0685,-0.0685,-0.0685,0,0.0015,0.0043,0.0051,0.0055,0.0025,-0.0002,-0.007,-0.0136,-0.0214,-0.0255,-0.0365,-0.0489,-0.0553,-0.0609,-0.0646,-0.0681,-0.0689,-0.0712,-0.067,-0.0694,-0.071,-0.0713,-0.0684,-0.0684,-0.0685,-0.0685,0,0,0.0042,0.0098,0.0101,0.0119,0.0067,0.0044,0.0015,-0.0048,-0.0067,-0.0205,-0.0224,-0.0381,-0.0465,-0.0498,-0.0576,-0.062,-0.0665,-0.066,-0.0662,-0.0649,-0.0723,-0.0679,-0.0678,-0.0696,-0.0697,-0.0697,-0.0733,0,0.0107,0.0203,0.0216,0.0249,0.0259,0.0168,0.0158,0.0086,-0.0018,-0.0086,-0.0227,-0.0307,-0.0406,-0.0468,-0.0525,-0.0649,-0.0671,-0.0652,-0.0722,-0.0723,-0.0661,-0.0679,-0.0698,-0.0735,-0.0735,-0.0736,-0.0736,0,0.0186,0.024,0.0316,0.0344,0.0336,0.0341,0.0264,0.0244,0.0131,0.0051,-0.0055,-0.0172,-0.0276,-0.0369,-0.0528,-0.0513,-0.0596,-0.0691,-0.0694,-0.0653,-0.0684,-0.0708,-0.0741,-0.0741,-0.074,-0.074,-0.074,0,0.022,0.0303,0.0365,0.0375,0.0382,0.0395,0.0368,0.0284,0.0259,0.0145,0.0081,-0.0053,-0.0151,-0.0279,-0.0478,-0.0501,-0.0651,-0.0697,-0.0722,-0.072,-0.0755,-0.0754,-0.0766,-0.0766,-0.0766,-0.0766,-0.0766,0,0.028,0.0325,0.0389,0.0418,0.0462,0.0456,0.0468,0.0408,0.0344,0.0313,0.0168,0.0089,-0.014,-0.0267,-0.0424,-0.0575,-0.0592,-0.0702,-0.0723,-0.075,-0.0748,-0.0758,-0.0756,-0.0767,-0.0767,-0.0767,-0.0767,0,0.0299,0.0348,0.0422,0.0471,0.049,0.0515,0.0539,0.0532,0.0461,0.0414,0.0381,0.0196,0.0024,-0.0176,-0.0399,-0.0498,-0.0651,-0.0685,-0.0676,-0.0699,-0.0711,-0.0708,-0.0716,-0.0715,-0.0714,-0.0713,-0.0712,0,0.0317,0.0367,0.0457,0.0501,0.0533,0.0581,0.0606,0.0581,0.0571,0.0467,0.0438,0.0277,0.014,-0.0125,-0.0336,-0.057,-0.0611,-0.0662,-0.0713,-0.0684,-0.0704,-0.0704,-0.0703,-0.071,-0.071,-0.071,-0.0709,0,0.0342,0.038,0.0431,0.0524,0.0585,0.0649,0.0685,0.0684,0.0642,0.0601,0.0479,0.0317,0.0139,-0.0102,-0.0266,-0.0448,-0.0624,-0.0651,-0.0656,-0.0704,-0.0677,-0.0698,-0.0699,-0.0705,-0.0706,-0.0706,-0.0707,0,0.0349,0.0381,0.0455,0.0528,0.0615,0.0671,0.0698,0.0694,0.0685,0.0579,0.0549,0.0334,0.0212,-0.0037,-0.0201,-0.0359,-0.0419,-0.0474,-0.0489,-0.0496,-0.0432,-0.0365,-0.03,0,0,0,0,0,0.0351,0.0381,0.0452,0.053,0.0615,0.066,0.0723,0.0736,0.0717,0.065,0.0598,0.0433,0.0164,0.0031,-0.0118,-0.0198,-0.0451,-0.0376,-0.0522,-0.0684,-0.0688,-0.0649,0,0,0,0,0,0,0.0349,0.041,0.0438,0.0517,0.0563,0.0649,0.0691,0.0684,0.0645,0.0605,0.0464,0.0404,0.014,0.0242,-0.0125,-0.0175,-0.0283,-0.0501,-0.0503,-0.0681,-0.0685,-0.0689,-0.065,0,0,0,0,0]}]]